Location: Hurecourt
(47.9030°N, 6.0653°E)
Time: 04:11:34
(UTC+00:00)

ATLAS 5 CENTAUR R/B - Pass Details

Date: 14 July 2020
Orbit: 534 x 1124 km, 63.4° (Epoch: 03 August)

Event Time Altitude Azimuth Distance (km) Brightness Sun altitude
Rises 01:33:56 0° 320° (NW) 3,209 5.5 -16.0°
Reaches altitude 10° 01:36:13 10° 325° (NW) 2,368 4.9 -15.9°
Maximum altitude 01:41:40 57° 44° (NE) 1,043 3.0 -15.4°
Drops below altitude 10° 01:48:02 10° 123° (ESE) 2,758 4.8 -14.9°
Sets 01:50:52 0° 127° (SE) 3,781 5.5 -14.7°
